Location: Ahausen
(50.4985°N, 8.2722°E)
Time: 03:06:23
(UTC+00:00)

ATLAS 3B R/B - Pass Details

Date: 18 September 2020
Orbit: 1016 x 1179 km, 63.8° (Epoch: 04 October)

Event Time Altitude Azimuth Distance (km) Brightness Sun altitude
Rises 19:30:21 0° 313° (NW) 3,803 7.0 -18.7°
Reaches altitude 10° 19:33:06 10° 320° (NW) 2,866 6.0 -19.1°
Maximum altitude 19:39:33 44° 32° (NNE) 1,447 3.3 -20.0°
Enters shadow 19:42:49 28° 85° (E) 1,932 3.6 -20.5°
